www.pogodaiklimat.ru

ПОГОДА в Ильичёвске

  • Прогноз погоды в Ильичёвске
  • Монитор погоды в Ильичёвске
  • Климат города

АРХИВ ПОГОДЫ в Ильичёвске

Время (UTC), дата Ветер
(напр.,м/с)
 
Видим.   Явления Облачность Т
(С)
Тd
(С)
f
(%)
Тe
(С)
Тes
(С)
Комфортность P
(гПа)
Po
(гПа)
Тmin
(С)
Tmax
(С)
R
(мм)
S
(см)
21 17.01 Ю 4 10 км 10/10 600 м
[Sc]
+4.0 +2.5 90 -1 -1 1025.3 1022.8
00 18.01 Ю 3 10 км 10/10 600 м
[Sc]
+4.1 +2.9 92 0 0 1024.8 1022.3
03 18.01 Ю 4 10 км 10/10 600 м
[Sc]
+3.9 +2.7 92 -1 -1 1023.2 1020.7
06 18.01 Ю 3 8000 м дымка 10/10 600 м
[Sc]
+4.2 +3.2 93 0 0 1022.9 1020.4 +3.6 2
09 18.01 Ю 3 8000 м дымка 10/8 300 м
[St As op]
+4.6 +3.6 93 +1 +1 1022.5 1020.0
12 18.01 Ю 4 8000 м дымка 10/9 300 м
[St As op]
+4.1 +2.9 92 -0 -0 1020.9 1018.4
15 18.01 Ю 2 4000 м дымка 10/10 300 м
[St]
+3.3 +2.6 95 0 0 1020.1 1017.6
18 18.01 штиль 0 200 м туман ?/? +3.2 +3.2 100 +2 +2 1019.9 1017.3 +4.6
21 18.01 штиль 0 200 м туман ?/? +0.4 +0.4 100 -1 -1 1019.7 1017.2
00 19.01 СЗ 1 200 м туман ?/? -1.1 -1.1 100 -3 -3 1019.3 1016.8
03 19.01 штиль 0 4000 м в посл. час туман 10/10 600 м
[Sc]
-0.7 -1.0 98 -2 -2 1017.5 1014.9
06 19.01 штиль 0 4000 м дымка {ливн. осадки, туман} 10/10 300 м
[St]
+0.4 -0.1 96 -1 -1 1017.3 1014.8 -1.5
09 19.01 СВ 1 500 м туман ?/? +2.0 +2.0 100 0 0 1017.6 1015.1
12 19.01 СВ 2 500 м туман {ливн. осадки} ?/? +3.5 +3.5 100 0 0 1015.6 1013.1
15 19.01 штиль 0 200 м туман ?/? +3.7 +3.7 100 +2 +2 1014.1 1011.6
18 19.01 З 2 200 м туман ?/? +2.5 +2.5 100 -1 -1 1014.1 1011.6 +3.9
21 19.01 СВ 1 200 м туман ?/? +1.6 +1.6 100 -1 -1 1014.4 1011.9
00 20.01 С 1 500 м туман ?/? +1.5 +1.5 100 -1 -1 1014.5 1012.0
03 20.01 СЗ 1 500 м туман ?/? +1.1 -1.1 85 -1 -1 1014.7 1012.1
06 20.01 СЗ 2 1000 м дымка {туман} 10/10 300 м
[]
+1.1 +0.8 98 -3 -3 1016.0 1013.5 +0.9
09 20.01 С 3 1000 м дымка 10/10 300 м
[St]
+1.8 +1.5 98 -3 -3 1017.1 1014.5
12 20.01 СЗ 2 2500 м дымка 10/10 300 м
[St]
+1.9 +1.6 98 -2 -2 1016.9 1014.4
15 20.01 С 1 1000 м дымка 10/10 300 м
[St]
+1.9 +1.6 98 -0 -0 1017.7 1015.2
18 20.01 С 1 1000 м дымка 10/10 300 м
[St]
+1.8 +1.5 98 -0 -0 1018.5 1016.0 +2.0
21 20.01 штиль 0 1000 м дымка 10/10 300 м
[St]
+2.2 +1.9 98 +1 +1 1018.9 1016.4
00 21.01 В 2 500 м туман ?/? +1.8 +1.5 98 -2 -2 1019.2 1016.7
03 21.01 В 2 500 м туман ?/? +1.5 +1.2 98 -2 -2 1018.7 1016.1
06 21.01 В 1 500 м слабый дождь {туман} ?/? +2.0 +1.7 98 0 0 1019.2 1016.7 +1.5
09 21.01 СВ 2 500 м слабый дождь {туман} ?/? +1.7 +1.4 98 -2 -2 1020.1 1017.6
12 21.01 СВ 2 8000 м дымка {дождь, туман} 10/10 300 м
[St]
+1.5 +1.2 98 -2 -2 1019.2 1016.7
15 21.01 СВ 2 4000 м дымка {дождь, туман} 10/10 300 м
[St]
+1.9 +1.6 98 -2 -2 1019.6 1017.1
18 21.01 СВ 2 4000 м дымка 10/10 300 м
[St]
+2.5 +2.2 98 -1 -1 1020.3 1017.7 +2.5 4
21 21.01 СЗ 1 500 м слабая морось {туман} ?/? +2.2 +1.9 98 0 0 1021.2 1018.7
00 22.01 СВ 2 500 м туман {морось} ?/? +2.4 +2.4 100 -1 -1 1021.3 1018.8 0.0
03 22.01 СВ 2 500 м туман ?/? +2.7 +2.7 100 -1 -1 1021.7 1019.2
06 22.01 СВ 1 200 м туман ?/? +2.7 +2.7 100 +1 +1 1022.7 1020.1 +2.1
09 22.01 В 2 200 м туман {морось} ?/? +2.9 +2.9 100 -1 -1 1023.6 1021.1
12 22.01 В 2 100 м морось {туман} ?/? +3.1 +3.1 100 -0 -0 1023.1 1020.5 0.4
15 22.01 В 3 50 м туман {морось} ?/? +2.7 +2.7 100 -2 -2 1022.5 1020.0
18 22.01 В 3 200 м слабый дождь {морось, туман} ?/? +2.8 +2.8 100 -2 -2 1023.1 1020.5 +3.2
21 22.01 В 2 200 м туман {дождь, морось} ?/? +3.4 +3.4 100 0 0 1023.2 1020.7
00 23.01 В 2 200 м туман {дождь, морось} ?/? +3.1 +3.1 100 -0 -0 1022.9 1020.4 0.4
03 23.01 ЮВ 2 200 м туман ?/? +2.5 +2.5 100 -1 -1 1022.5 1020.0
06 23.01 ЮВ 1 100 м туман ?/? +2.2 +2.2 100 0 0 1022.7 1020.1 +2.2 0.4
09 23.01 В 3 100 м туман ?/? +2.3 +2.3 100 -2 -2 1027.7 1025.2
12 23.01 ЮВ 4 100 м туман ?/? +2.3 +2.3 100 -3 -3 1021.9 1019.3
15 23.01 СВ 1 200 м туман ?/? +2.8 +2.8 100 +1 +1 1021.1 1018.5
18 23.01 В 5 200 м туман ?/? +3.3 +3.3 100 -2 -2 1020.9 1018.4 +3.4
21 23.01 В 8 500 м туман ?/? +2.4 +2.4 100 -5 -5 1020.9 1018.4
00 24.01 В 8 500 м туман ?/? +2.0 +2.0 100 -5 -5 1020.1 1017.6
03 24.01 В 8 1000 м в посл. час туман 10/10 300 м
[St]
+1.7 +1.4 98 -6 -6 1018.1 1015.6
06 24.01 В 8 1000 м дымка {туман} 10/10 300 м
[St]
+1.4 +0.9 96 -6 -6 1017.7 1015.2 +1.3
09 24.01 В 8 5000 м дымка 10/10 300 м
[St]
+1.0 +0.7 98 -6 -6 1017.1 1014.5
12 24.01 В 8 6000 м дымка 10/10 600 м
[Sc]
+1.0 +0.7 98 -6 -6 1015.7 1013.2
15 24.01 В 8 4000 м дымка 10/10 600 м
[Sc]
+1.0 +0.7 98 -6 -6 1015.3 1012.8
18 24.01 В 8 4000 м дымка 10/10 600 м
[Sc]
+0.8 +0.3 96 -7 -7 1015.7 1013.2 +1.4

 

Местоположение метеостанции Ильичевск (Одесская область, Украина): широта 46.40 долгота 30.70 высота над уровнем моря 52 м.

В архиве по умолчанию представлена погода в Ильичёвске за последнюю неделю. Архивные данные за месяц целиком и за предыдущие месяцы, начиная с января 2011 года, Вы можете получить, выбрав интересующий диапазон дат из раскрывающегося списка и нажав кнопку "Ввод!".

Внимание! Время в таблицах - всемирное. Для получения местного времени необходимо прибавить поправку, которая в Ильичёвске равна 2 ч.

Ветер - указаны скорость ветра в м/с - средняя за 10 мин, порывы в срок и между сроками (в фигурных скобках) и направление, откуда дует ветер: С - северный, СВ - северо-восточный, В - восточный, ЮВ - юго-восточный, Ю - южный, ЮЗ - юго-западный, З - западный, СЗ - северо-западный.
Видимость - горизонтальная дальность видимости в метрах или километрах. При видимости от 1 до 10 км при отсутствии осадков обычно наблюдается дымка, при ухудшении видимости до 1 км и менее - туман. В сухую погоду видимость может ухудшаться дымом, пылью или мглою.
Явления - указаны атмосферные явления, наблюдавшиеся в срок или в последний час перед сроком; фигурными скобками обозначены явления, наблюдавшиеся между сроками (за 1-3 часа до срока); квадратными скобками обозначены град или гололедные отложения с указанием их диаметра в мм.
Облачность - указаны через наклонную черту общая и нижняя облачность в баллах и высота нижней границы облаков в метрах; квадратными скобками обозначены формы облаков: Ci - перистые, Cs - перисто-слоистые, Cc - перисто-кучевые, Ac - высококучевые, As - высокослоистые, Sc - слоисто-кучевые, Ns - слоисто-дождевые, Cu - кучевые, Cb - кучево-дождевые. Подробнее классификацию облаков см. в Атласе облаков (PDF).
T - Температура воздуха - температура, измеренная на высоте 2 м над землей.
Td - Температура точки росы - температура, при понижении до которой содержащийся в воздухе водяной пар достигнет насыщения.
f - Относительная влажность воздуха - влажноcть воздуха, измеренная на высоте 2 м над землей.
Te - Эффективная температура - температура, которую ощущает одетый по сезону человек в тени. Характеристика душности погоды. При расчете учитывается влияние влажности воздуха и скорости ветра на теплоощущения человека.
Tes - Эффективная температура на солнце - температура, которую ощущает человек, с поправкой на солнечный нагрев. Характеристика знойности погоды. Зависит от высоты солнца над горизонтом, облачности и скорости ветра. Ночью, в пасмурную погоду, а также при ветре 12 м/с и более поправка равна нулю.
P - Атмосферное давление - приведенное к уровню моря атмосферное давление.
Po - Атмосферное давление - измеренное на уровне метеостанции атмосферное давление.
Tmin - Минимальная температура - минимум температуры воздуха на высоте 2 м над землей.
Tmax - Максимальная температура - максимум температуры воздуха на высоте 2 м над землей.
R - Количество осадков - Количество выпавших осадков, мм.
S - Снежный покров - Высота снежного покрова, см.